1507996800.33,18738,14.75,74652.5,2.07,-22.83,-23.79,0,*79
1507996801.61,18739,14.75,74658.5,2.05,-23.03,-23.99,0,*7D
1507996802.83,18740,14.75,74658.5,2.07,-23.09,-23.95,0,*77
1507996804.05,18741,14.75,74658.0,2.07,-22.97,-23.99,0,*7C
1507996805.29,18742,14.75,74656.5,2.05,-22.87,-23.99,0,*7C
1507996806.49,18743,14.75,74654.3,2.07,-22.83,-23.79,0,*75
1507996807.74,18744,14.75,74660.0,2.05,-22.87,-23.85,0,*77
1507996808.99,18745,14.75,74656.8,2.05,-22.37,-23.29,0,*7B
1507996810.2,18746,14.75,74660.8,2.07,-22.63,-23.65,0,*73
1507996811.48,18747,14.75,74664.5,2.05,-22.73,-23.85,0,*7F
1507996812.67,18748,14.75,74664.0,2.07,-22.83,-23.89,0,*71
1507996813.86,18749,14.75,74660.0,2.07,-22.67,-23.79,0,*75
1507996815.06,18750,14.75,74662.0,2.07,-22.67,-23.75,0,*71
1507996816.31,18751,14.75,74652.5,2.05,-22.73,-23.79,0,*7B
1507996817.5,18752,14.75,74660.5,2.07,-22.67,-23.79,0,*7F
1507996818.72,18753,14.75,74660.5,2.07,-22.93,-23.95,0,*77
1507996819.97,18754,14.75,74668.0,2.07,-22.77,-23.95,0,*7A
1507996821.17,18755,14.75,74662.3,2.07,-22.93,-24.05,0,*7F
1507996822.39,18756,14.75,74662.0,2.07,-22.77,-23.79,0,*7A
1507996823.64,18757,14.75,74660.3,2.05,-22.73,-23.75,0,*71
1507996824.89,18758,14.75,74664.8,2.05,-22.97,-23.95,0,*7A
1507996826.13,18759,14.75,74662.3,2.05,-22.87,-24.11,0,*71
1507996827.38,18760,14.75,74656.5,2.05,-22.83,-23.95,0,*74
1507996828.66,18761,14.75,74658.8,2.05,-22.73,-23.85,0,*7B
1507996829.9,18762,14.75,74660.0,2.05,-22.87,-23.95,0,*72
1507996831.14,18763,14.75,74662.3,2.05,-22.83,-23.99,0,*7B
1507996832.37,18764,14.75,74668.5,2.07,-22.77,-23.89,0,*74
1507996833.59,18765,14.75,74664.8,2.05,-22.67,-23.79,0,*79
1507996834.84,18766,14.75,74666.3,2.05,-22.73,-23.79,0,*7F
1507996836.09,18767,14.75,74664.3,2.05,-22.97,-23.99,0,*7A
1507996837.34,18768,14.75,74664.8,2.05,-22.97,-23.99,0,*75
1507996838.56,18769,14.75,74664.0,2.07,-22.93,-23.95,0,*7E
1507996839.8,18770,14.75,74666.3,2.05,-22.87,-23.95,0,*71
1507996841.05,18771,14.75,74662.8,2.05,-22.67,-23.69,0,*7D
1507996842.25,18772,14.75,74668.8,2.03,-22.83,-23.79,0,*73
1507996843.47,18773,14.75,74666.8,2.05,-22.67,-23.79,0,*7E
1507996844.72,18774,14.75,74666.3,2.05,-22.83,-23.85,0,*70
1507996845.98,18775,14.75,74662.3,2.05,-22.97,-23.99,0,*79
1507996847.23,18776,14.75,74666.3,2.05,-22.83,-23.85,0,*72
1507996848.45,18777,14.75,74666.8,2.05,-22.83,-23.79,0,*70
1507996849.68,18778,14.75,74664.3,2.05,-22.67,-23.79,0,*75
1507996850.93,18779,14.75,74664.5,2.05,-22.97,-23.95,0,*79
1507996852.18,18780,14.75,74668.5,2.05,-22.83,-23.85,0,*7B
1507996853.43,18781,14.75,74668.3,2.05,-22.97,-23.99,0,*72
1507996854.65,18782,14.75,74666.8,2.05,-22.83,-23.79,0,*7A
1507996855.9,18783,14.75,74666.8,2.05,-22.73,-23.79,0,*74
1507996857.17,18784,14.75,74662.3,2.05,-22.73,-23.69,0,*72
1507996858.42,18785,14.75,74662.5,2.05,-22.83,-23.85,0,*7E
1507996859.65,18786,14.75,74662.5,2.05,-22.83,-23.79,0,*7E
1507996860.9,18787,14.75,74666.5,2.05,-22.87,-23.85,0,*78
1507996862.13,18788,14.75,74668.3,2.05,-22.57,-23.79,0,*79
1507996863.4,18789,14.75,74664.5,2.05,-22.73,-23.85,0,*7D
1507996864.65,18790,14.75,74664.8,2.05,-22.57,-23.69,0,*71
1507996865.91,18791,14.75,74666.3,2.05,-22.57,-23.69,0,*70
1507996867.16,18792,14.75,74666.3,2.05,-22.57,-23.65,0,*7F
1507996868.41,18793,14.75,74664.8,2.05,-22.53,-23.65,0,*7A
1507996869.64,18794,14.75,74670.8,2.03,-22.53,-23.65,0,*7B
1507996870.84,18795,14.75,74668.5,2.03,-22.83,-23.79,0,*7A
1507996872.06,18796,14.75,74666.8,2.03,-22.67,-23.65,0,*7E
1507996873.29,18797,14.75,74666.3,2.03,-22.67,-23.65,0,*7F
1507996874.52,18798,14.75,74664.5,2.03,-22.53,-23.53,0,*72
1507996875.74,18799,14.75,74672.5,2.03,-22.57,-23.69,0,*7E
1507996876.99,18800,14.75,74670.0,2.05,-22.67,-23.69,0,*74
1507996878.22,18801,14.75,74668.5,2.03,-22.57,-23.65,0,*7C
1507996879.45,18802,14.75,74668.0,2.03,-22.53,-23.65,0,*7B
1507996880.65,18803,14.75,74668.5,2.03,-22.83,-23.79,0,*7A
1507996881.85,18804,14.75,74670.0,2.03,-22.67,-23.79,0,*77
1507996883.07,18805,14.75,74674.0,2.03,-22.57,-23.65,0,*78
1507996884.32,18806,14.75,74670.0,2.03,-22.73,-23.69,0,*71
1507996885.54,18807,14.75,74668.3,2.03,-22.67,-23.69,0,*75
1507996886.79,18808,14.75,74666.0,2.03,-22.47,-23.53,0,*71
1507996888.02,18809,14.75,74670.3,2.03,-22.57,-23.65,0,*74
1507996889.24,18810,14.75,74668.8,2.03,-22.87,-23.69,0,*7D
1507996890.47,18811,14.75,74670.0,2.03,-22.73,-23.79,0,*76
1507996891.67,18812,14.75,74666.5,2.03,-22.83,-23.79,0,*7A
1507996892.87,18813,14.75,74670.3,2.03,-22.83,-23.79,0,*7B
1507996894.09,18814,14.75,74664.8,2.03,-22.53,-23.65,0,*7C
1507996895.32,18815,14.75,74664.3,2.03,-22.57,-23.65,0,*79
1507996896.55,18816,14.75,74666.8,2.03,-22.53,-23.65,0,*7E
1507996897.77,18817,14.75,74666.8,2.03,-22.73,-23.79,0,*70
1507996898.97,18818,14.75,74666.5,2.03,-22.67,-23.79,0,*7A
1507996900.23,18819,14.75,74670.8,2.01,-22.77,-23.79,0,*78
1507996901.47,18820,14.75,74664.0,2.01,-22.63,-23.69,0,*76
1507996902.72,18821,14.75,74662.8,2.03,-22.73,-23.69,0,*74
1507996903.96,18822,14.75,74660.3,2.03,-22.73,-23.69,0,*77
1507996905.2,18823,14.75,74662.0,2.01,-22.63,-23.69,0,*75
1507996906.45,18824,14.75,74664.8,2.01,-22.63,-23.69,0,*72
1507996907.68,18825,14.75,74666.0,2.03,-22.57,-23.65,0,*7A
1507996908.9,18826,14.75,74664.3,2.03,-22.67,-23.69,0,*76
1507996910.13,18827,14.75,74664.8,2.01,-22.53,-23.59,0,*71
1507996911.39,18828,14.75,74664.0,2.01,-22.73,-23.69,0,*7F
1507996912.62,18829,14.75,74670.0,2.03,-22.53,-23.69,0,*7E
1507996913.84,18830,14.75,74668.0,2.01,-22.63,-23.59,0,*74
1507996915.06,18831,14.75,74670.5,2.03,-22.63,-23.69,0,*74
1507996916.29,18832,14.75,74666.0,2.01,-22.57,-23.59,0,*71
1507996917.52,18833,14.75,74664.5,2.01,-22.53,-23.59,0,*74
1507996918.77,18834,14.75,74670.5,2.01,-22.77,-23.75,0,*7B
1507996920.0,18835,14.75,74664.5,2.01,-22.57,-23.59,0,*76
1507996921.23,18836,14.75,74666.3,2.01,-22.53,-23.59,0,*71
1507996922.48,18837,14.75,74670.8,2.01,-22.73,-23.75,0,*7C
1507996923.73,18838,14.75,74666.5,2.01,-22.73,-23.75,0,*73
1507996924.98,18839,14.75,74666.5,2.01,-22.73,-23.75,0,*72
1507996926.22,18840,14.75,74662.8,2.01,-22.63,-23.69,0,*70
1507996927.47,18841,14.75,74660.5,2.01,-22.73,-23.75,0,*7D
1507996928.72,18842,14.75,74664.5,2.01,-22.73,-23.75,0,*7E
1507996929.95,18843,14.75,74662.5,2.03,-22.37,-23.49,0,*72
1507996931.22,18844,14.75,74666.0,2.01,-22.77,-23.69,0,*71
1507996932.48,18845,14.75,74666.3,2.01,-22.77,-23.75,0,*7D
1507996933.73,18846,14.75,74662.0,2.01,-22.53,-23.53,0,*7C
1507996934.96,18847,14.75,74664.0,1.99,-22.73,-23.75,0,*79
1507996936.15,18848,14.75,74662.0,1.99,-22.63,-23.75,0,*77
1507996937.35,18849,14.75,74662.8,1.99,-22.37,-23.39,0,*7F
1507996938.55,18850,14.75,74664.3,1.99,-22.63,-23.59,0,*70
1507996939.8,18851,14.75,74662.0,2.01,-22.77,-23.75,0,*78
1507996941.03,18852,14.75,74664.5,1.99,-22.53,-23.53,0,*7B
1507996942.25,18853,14.75,74662.3,1.99,-22.53,-23.53,0,*7A
1507996943.48,18854,14.75,74662.0,1.99,-22.57,-23.53,0,*79
1507996944.7,18855,14.75,74666.0,1.99,-22.41,-23.49,0,*74
1507996945.93,18856,14.75,74664.8,1.99,-22.53,-23.53,0,*7F
1507996947.18,18857,14.75,74662.8,1.97,-22.47,-23.59,0,*7F
1507996948.42,18858,14.75,74660.8,1.97,-22.63,-23.65,0,*79
1507996949.66,18859,14.75,74666.0,1.99,-22.73,-23.69,0,*7B
1507996950.87,18860,14.75,74670.3,1.97,-22.63,-23.59,0,*7D
1507996952.08,18861,14.75,74664.5,1.99,-22.57,-23.59,0,*75
1507996953.27,18862,14.75,74664.0,1.99,-22.27,-23.39,0,*77
1507996954.5,18863,14.75,74660.8,1.99,-22.57,-23.49,0,*76
1507996955.7,18864,14.75,74664.8,1.99,-22.57,-23.59,0,*70
1507996956.9,18865,14.75,74660.0,1.99,-22.27,-23.39,0,*70
1507996958.1,18866,14.75,74656.8,1.99,-22.37,-23.39,0,*72
1507996959.29,18867,14.75,74662.0,1.99,-22.41,-23.39,0,*72
1507996960.52,18868,14.75,74660.5,1.99,-22.27,-23.23,0,*76
1507996961.77,18869,14.75,74660.3,1.99,-22.21,-23.19,0,*78
1507996962.97,18870,14.75,74662.0,1.99,-22.27,-23.39,0,*74
1507996964.17,18871,14.75,74658.3,1.99,-22.27,-23.39,0,*75
1507996965.4,18872,14.75,74658.3,1.99,-22.53,-23.49,0,*72
1507996966.62,18873,14.75,74660.0,1.99,-22.53,-23.53,0,*78
1507996967.82,18874,14.75,74660.3,1.99,-22.63,-23.59,0,*76
1507996969.01,18875,14.75,74658.3,1.99,-22.37,-23.39,0,*70
1507996970.24,18876,14.75,74660.3,1.99,-22.37,-23.49,0,*74
1507996971.44,18877,14.75,74662.0,1.99,-22.53,-23.59,0,*76
1507996972.66,18878,14.75,74660.3,1.99,-22.63,-23.69,0,*79
1507996973.9,18879,14.75,74660.3,1.97,-22.41,-23.53,0,*7F
1507996975.12,18880,14.75,74662.3,1.99,-22.27,-23.33,0,*71
1507996976.34,18881,14.75,74660.3,1.97,-22.41,-23.39,0,*74
1507996977.56,18882,14.75,74658.0,2.01,-22.27,-23.39,0,*7B
1507996978.82,18883,14.75,74660.8,1.99,-22.21,-23.23,0,*75
1507996980.05,18884,14.75,74662.3,1.99,-22.37,-23.49,0,*79
1507996981.27,18885,14.75,74666.8,1.99,-22.37,-23.49,0,*78
1507996982.49,18886,14.75,74664.0,1.97,-22.57,-23.59,0,*72
1507996983.69,18887,14.75,74660.8,1.99,-22.41,-23.39,0,*7C
1507996984.91,18888,14.75,74662.3,1.97,-22.57,-23.59,0,*7C
1507996986.14,18889,14.75,74660.3,1.99,-22.57,-23.53,0,*79
1507996987.36,18890,14.69,74658.5,1.99,-22.63,-23.53,0,*76
1507996988.61,18891,14.75,74662.5,1.97,-22.57,-23.53,0,*7E
1507996989.88,18892,14.75,74660.8,1.97,-22.47,-23.53,0,*7C
1507996991.12,18893,14.75,74664.0,1.97,-22.63,-23.65,0,*7E
1507996992.36,18894,14.75,74662.3,2.01,-22.63,-23.69,0,*79
1507996993.59,18895,14.75,74660.8,1.97,-22.57,-23.59,0,*70
1507996994.81,18896,14.75,74658.5,1.97,-22.57,-23.59,0,*73
1507996996.06,18897,14.75,74662.5,1.97,-22.47,-23.59,0,*73
1507996997.26,18898,14.75,74670.8,1.99,-22.27,-23.39,0,*72
1507996998.45,18899,14.69,74664.0,1.99,-22.41,-23.59,0,*75
1507996999.68,18900,14.69,74656.0,1.99,-22.27,-23.33,0,*78
1507997000.9,18901,14.75,74658.8,1.97,-22.41,-23.43,0,*70
1507997002.15,18902,14.69,74654.5,1.97,-22.31,-23.39,0,*79
1507997003.39,18903,14.75,74662.0,1.97,-22.31,-23.39,0,*78
1507997004.64,18904,14.75,74658.5,1.97,-22.31,-23.39,0,*7F
1507997005.91,18905,14.75,74660.3,1.97,-22.31,-23.29,0,*7F
1507997007.18,18906,14.75,74664.5,1.97,-22.31,-23.29,0,*7C
1507997008.43,18907,14.69,74660.0,1.97,-22.17,-23.13,0,*70
1507997009.68,18908,14.75,74662.8,1.99,-22.21,-23.33,0,*76
1507997010.96,18909,14.75,74662.0,1.97,-22.31,-23.23,0,*79
1507997012.18,18910,14.75,74656.5,1.97,-22.41,-23.43,0,*70
1507997013.41,18911,14.75,74660.8,1.99,-22.37,-23.49,0,*74
1507997014.66,18912,14.75,74662.8,1.97,-22.47,-23.43,0,*74
1507997015.91,18913,14.75,74662.0,1.97,-22.27,-23.29,0,*7F
1507997017.1,18914,14.75,74660.8,1.99,-22.41,-23.39,0,*77
1507997018.34,18915,14.69,74660.0,1.97,-22.41,-23.53,0,*74
1507997019.58,18916,14.75,74662.3,1.95,-22.47,-23.43,0,*72
1507997020.85,18917,14.75,74664.8,1.97,-22.31,-23.29,0,*7C
1507997022.09,18918,14.69,74660.8,1.97,-22.41,-23.53,0,*79
1507997023.35,18919,14.75,74662.0,1.97,-22.17,-23.09,0,*74
1507997024.59,18920,14.75,74662.5,1.97,-22.31,-23.39,0,*79
1507997025.87,18921,14.75,74666.8,1.97,-22.47,-23.53,0,*75
1507997027.12,18922,14.75,74664.3,1.97,-22.47,-23.43,0,*77
1507997028.37,18923,14.75,74664.0,1.97,-22.31,-23.39,0,*7A
1507997029.61,18924,14.75,74664.0,1.97,-22.41,-23.53,0,*76
1507997030.88,18925,14.75,74666.5,1.97,-22.31,-23.29,0,*7D
1507997032.13,18926,14.75,74664.5,1.97,-22.17,-22.97,0,*7E
1507997033.38,18927,14.75,74670.5,1.97,-22.27,-23.29,0,*78
1507997034.65,18928,14.69,74662.0,1.97,-22.31,-23.29,0,*70
1507997035.89,18929,14.75,74656.5,1.97,-22.31,-23.39,0,*70
1507997037.12,18930,14.75,74660.3,1.99,-22.37,-23.49,0,*77
1507997038.37,18931,14.75,74656.0,1.97,-22.47,-23.43,0,*75
1507997039.64,18932,14.75,74654.3,1.97,-22.31,-23.29,0,*7B
1507997040.91,18933,14.75,74652.5,1.97,-22.31,-23.29,0,*7A
1507997042.18,18934,14.75,74656.8,1.97,-22.31,-23.29,0,*7D
1507997043.43,18935,14.75,74662.8,1.97,-22.31,-23.39,0,*7D
1507997044.67,18936,14.75,74660.5,1.97,-22.41,-23.53,0,*75
1507997045.92,18937,14.75,74662.5,1.97,-22.31,-23.43,0,*72
1507997047.19,18938,14.75,74656.8,1.97,-22.31,-23.29,0,*71
1507997048.44,18939,14.75,74656.5,1.97,-21.97,-22.93,0,*7F
1507997049.66,18940,14.75,74654.3,1.97,-22.27,-23.13,0,*70
1507997050.91,18941,14.75,74656.8,1.97,-22.47,-23.39,0,*7F
1507997052.16,18942,14.75,74654.5,1.97,-22.57,-23.53,0,*71
1507997053.39,18943,14.75,74654.5,1.97,-22.57,-23.43,0,*71
1507997054.64,18944,14.75,74662.3,1.97,-22.57,-23.53,0,*77
1507997055.89,18945,14.69,74658.0,1.97,-22.31,-23.43,0,*77
1507997057.12,18946,14.75,74654.0,1.97,-22.03,-22.97,0,*7D
1507997058.39,18947,14.75,74648.0,1.97,-22.31,-23.29,0,*79
1507997059.63,18948,14.75,74648.5,1.97,-22.31,-23.39,0,*77
1507997060.9,18949,14.75,74650.3,1.97,-22.31,-23.29,0,*77
1507997062.14,18950,14.69,74650.3,1.97,-22.41,-23.53,0,*75
1507997063.37,18951,14.75,74652.0,1.97,-22.57,-23.59,0,*79
1507997064.64,18952,14.75,74648.0,1.97,-22.31,-23.29,0,*7D
1507997065.89,18953,14.75,74648.5,1.97,-21.97,-22.97,0,*77
1507997067.11,18954,14.75,74646.0,1.97,-22.03,-23.09,0,*78
1507997068.36,18955,14.69,74648.3,1.97,-22.27,-23.23,0,*77
1507997069.6,18956,14.75,74656.5,1.97,-22.27,-23.29,0,*7E
1507997070.85,18957,14.75,74656.0,1.97,-22.27,-23.29,0,*7F
1507997072.07,18958,14.75,74658.0,1.97,-22.41,-23.43,0,*7C
1507997073.33,18959,14.75,74656.8,1.97,-22.27,-23.23,0,*7B
1507997074.57,18960,14.75,74654.5,1.99,-21.67,-22.73,0,*7C
1507997075.8,18961,14.75,74648.8,1.99,-21.97,-22.87,0,*79
1507997077.05,18962,14.75,74652.0,1.97,-22.27,-23.23,0,*73
1507997078.3,18963,14.75,74648.0,1.99,-22.21,-23.19,0,*73
1507997079.56,18964,14.75,74658.3,1.99,-22.21,-23.23,0,*7D
1507997080.75,18965,14.69,74654.8,1.99,-22.37,-23.39,0,*70
1507997082.01,18966,14.69,74650.5,1.97,-22.31,-23.43,0,*76
1507997083.26,18967,14.75,74658.0,1.97,-22.47,-23.39,0,*7B
1507997084.45,18968,14.75,74656.8,1.99,-22.37,-23.39,0,*7D
1507997085.7,18969,14.69,74652.0,1.97,-22.31,-23.39,0,*74
1507997086.98,18970,14.69,74648.3,1.97,-22.31,-23.23,0,*77
1507997088.2,18971,14.69,74650.5,1.99,-22.27,-23.19,0,*76
1507997089.48,18972,14.69,74654.3,1.97,-22.31,-23.23,0,*75
1507997090.71,18973,14.75,74652.8,1.99,-22.27,-23.23,0,*7D
1507997091.94,18974,14.75,74658.0,1.99,-22.57,-23.53,0,*7A
1507997093.19,18975,14.75,74652.0,1.97,-22.47,-23.43,0,*75
1507997094.44,18976,14.69,74646.8,1.97,-22.27,-23.23,0,*76
1507997095.64,18977,14.69,74656.0,1.99,-22.41,-23.39,0,*72
1507997096.88,18978,14.75,74652.0,1.97,-22.41,-23.53,0,*7F
1507997098.11,18979,14.75,74646.3,1.97,-22.41,-23.43,0,*7F
1507997099.36,18980,14.75,74650.8,1.97,-22.31,-23.43,0,*7E
1507997100.6,18981,14.75,74650.8,1.97,-22.41,-23.29,0,*74
1507997101.85,18982,14.75,74654.8,1.97,-22.31,-23.39,0,*71
1507997103.12,18983,14.75,74656.3,1.97,-22.31,-23.29,0,*71
1507997104.34,18984,14.69,74650.8,1.97,-22.27,-23.13,0,*78
1507997105.58,18985,14.69,74654.3,1.97,-22.27,-23.29,0,*70
1507997106.81,18986,14.69,74648.3,1.99,-22.27,-23.23,0,*77
1507997108.03,18987,14.69,74652.3,1.97,-22.03,-22.97,0,*70
1507997109.28,18988,14.69,74654.8,1.97,-21.97,-22.93,0,*75
1507997110.54,18989,14.75,74660.8,1.97,-22.17,-23.13,0,*76
1507997111.82,18990,14.69,74662.5,1.97,-22.17,-23.23,0,*7D
1507997113.02,18991,14.69,74656.0,1.99,-22.11,-23.09,0,*7C
1507997114.28,18992,14.69,74654.5,1.97,-21.87,-22.93,0,*7F
1507997115.47,18993,14.75,74650.3,1.99,-22.07,-23.09,0,*79
1507997116.73,18994,14.69,74650.3,1.99,-21.67,-22.77,0,*73
1507997117.98,18995,14.75,74662.3,1.97,-21.73,-22.77,0,*79
1507997119.21,18996,14.69,74666.5,1.99,-21.77,-22.77,0,*70
1507997120.45,18997,14.69,74658.5,1.99,-21.57,-22.73,0,*77
1507997121.65,18998,14.75,74652.0,1.99,-21.93,-22.87,0,*7B
1507997122.87,18999,14.75,74658.8,1.99,-22.07,-23.03,0,*79
1507997124.13,19000,14.69,74658.0,2.01,-21.97,-22.93,0,*71
1507997125.33,19001,14.75,74660.0,1.99,-21.93,-22.87,0,*73
1507997126.55,19002,14.69,74652.5,1.99,-21.97,-22.93,0,*71
1507997127.78,19003,14.75,74656.8,1.99,-22.21,-23.09,0,*7C
1507997129.01,19004,14.75,74662.8,1.99,-22.21,-23.09,0,*7B
1507997130.24,19005,14.75,74654.8,1.99,-22.17,-23.09,0,*7F
1507997131.45,19006,14.69,74656.8,1.99,-22.11,-23.09,0,*7A
1507997132.7,19007,14.75,74660.3,1.99,-22.21,-23.19,0,*79
1507997133.93,19008,14.69,74662.8,1.99,-22.21,-23.09,0,*77
1507997135.13,19009,14.69,74660.5,1.99,-21.77,-22.83,0,*75
1507997136.35,19010,14.69,74662.0,1.97,-22.03,-22.97,0,*76
1507997137.55,19011,14.69,74662.8,1.99,-22.11,-23.09,0,*7C
1507997138.75,19012,14.69,74656.0,1.99,-22.07,-22.93,0,*7A
1507997139.98,19013,14.69,74654.3,1.99,-21.97,-22.93,0,*71
1507997141.23,19014,14.75,74656.5,1.97,-22.17,-23.09,0,*71
1507997142.49,19015,14.69,74658.5,1.99,-22.21,-23.19,0,*7A
1507997143.69,19016,14.69,74660.0,1.99,-22.11,-23.09,0,*7B
1507997144.94,19017,14.69,74660.0,1.99,-21.97,-22.77,0,*7F
1507997146.17,19018,14.75,74658.5,1.99,-21.67,-22.53,0,*79
1507997147.39,19019,14.69,74658.0,1.99,-21.77,-22.73,0,*7B
1507997148.61,19020,14.69,74656.0,1.99,-21.77,-22.73,0,*71
1507997149.81,19021,14.69,74658.8,1.99,-22.07,-22.93,0,*7A
1507997151.05,19022,14.69,74652.8,2.01,-21.57,-22.41,0,*72
1507997152.33,19023,14.69,74658.0,2.01,-21.83,-22.73,0,*7B
1507997153.55,19024,14.69,74652.3,2.01,-22.07,-22.93,0,*7D
1507997154.78,19025,14.69,74656.3,1.99,-22.11,-23.03,0,*71
1507997155.99,19026,14.69,74662.0,1.99,-22.07,-23.03,0,*75
1507997157.22,19027,14.69,74662.0,1.99,-22.11,-23.03,0,*73
1507997158.47,19028,14.75,74664.0,2.01,-22.11,-23.03,0,*7E
1507997159.72,19029,14.75,74666.0,1.99,-22.21,-23.19,0,*75
1507997161.0,19030,14.69,74660.0,1.97,-22.31,-23.23,0,*7B
1507997162.2,19031,14.69,74662.3,1.99,-22.11,-22.93,0,*7C
1507997163.46,19032,14.69,74660.5,1.97,-22.27,-23.23,0,*7E
1507997164.68,19033,14.69,74666.0,1.99,-21.93,-22.77,0,*7D
1507997165.9,19034,14.69,74662.3,1.99,-22.07,-23.03,0,*76
1507997167.16,19035,14.69,74664.5,1.99,-22.21,-23.19,0,*78
1507997168.39,19036,14.69,74664.5,1.99,-22.17,-23.09,0,*7F
1507997169.61,19037,14.69,74664.5,1.99,-22.07,-23.03,0,*75
1507997170.81,19038,14.69,74660.8,1.99,-22.11,-23.09,0,*77
1507997172.06,19039,14.69,74658.0,1.99,-22.21,-23.19,0,*74
1507997173.31,19040,14.69,74656.5,1.97,-22.27,-23.29,0,*71
1507997174.55,19041,14.69,74658.3,1.97,-22.27,-23.29,0,*70
1507997175.78,19042,14.69,74652.5,1.99,-22.11,-23.03,0,*70
1507997176.98,19043,14.69,74658.0,1.99,-22.11,-23.09,0,*7B
1507997178.2,19044,14.75,74660.0,1.97,-22.27,-23.13,0,*7C
1507997179.4,19045,14.69,74658.8,1.99,-22.11,-22.93,0,*7F
1507997180.63,19046,14.69,74660.8,1.97,-22.11,-22.97,0,*76
1507997181.85,19047,14.69,74662.8,1.97,-22.03,-22.93,0,*70
1507997183.1,19048,14.69,74658.0,1.97,-21.87,-22.83,0,*71
1507997184.35,19049,14.69,74658.0,1.97,-21.97,-22.93,0,*70
1507997185.58,19050,14.69,74660.3,1.99,-22.11,-23.03,0,*73
1507997186.83,19051,14.69,74662.8,1.97,-22.17,-23.13,0,*7B
1507997188.08,19052,14.69,74660.3,1.97,-22.17,-23.13,0,*78
1507997189.34,19053,14.75,74666.3,1.99,-21.87,-22.77,0,*7E
1507997190.59,19054,14.69,74662.8,1.97,-21.87,-22.83,0,*7C
1507997191.81,19055,14.69,74666.0,1.97,-22.27,-23.13,0,*7C
1507997193.01,19056,14.69,74660.8,1.99,-22.07,-22.97,0,*7E
1507997194.23,19057,14.69,74662.0,1.99,-21.97,-22.87,0,*74
1507997195.43,19058,14.69,74662.3,1.99,-22.07,-22.93,0,*74
1507997196.68,19059,14.69,74656.3,1.97,-22.17,-22.97,0,*7E
1507997197.93,19060,14.69,74658.8,1.97,-22.11,-23.03,0,*7E
1507997199.18,19061,14.69,74658.5,2.01,-22.07,-23.03,0,*74
1507997200.4,19062,14.69,74660.3,1.99,-22.07,-23.03,0,*75
1507997201.62,19063,14.69,74660.8,1.97,-22.11,-23.13,0,*7C
1507997202.84,19064,14.69,74662.0,1.97,-22.03,-22.97,0,*75
1507997204.12,19065,14.69,74658.0,1.97,-21.67,-22.77,0,*7B
1507997205.34,19066,14.69,74658.0,1.97,-22.03,-22.93,0,*73
1507997206.56,19067,14.69,74658.8,1.97,-22.11,-23.13,0,*78
1507997207.79,19068,14.69,74666.0,1.97,-22.11,-22.97,0,*7A
1507997209.01,19069,14.69,74664.5,1.97,-22.11,-22.97,0,*7B
1507997210.21,19070,14.69,74660.5,1.99,-22.03,-23.09,0,*78
1507997211.46,19071,14.69,74660.0,1.97,-21.97,-22.93,0,*7B
1507997212.71,19072,14.69,74658.3,1.97,-21.97,-22.93,0,*78
1507997213.91,19073,14.75,74662.3,1.95,-21.93,-22.87,0,*7A
1507997215.14,19074,14.69,74656.0,1.99,-21.97,-22.87,0,*75
1507997216.38,19075,14.69,74660.5,1.97,-21.83,-22.83,0,*7B
1507997217.61,19076,14.69,74658.0,1.97,-22.11,-23.09,0,*73
1507997218.86,19077,14.69,74658.5,1.97,-21.87,-22.83,0,*7D
1507997220.09,19078,14.69,74660.5,1.99,-21.93,-23.03,0,*70
1507997221.31,19079,14.69,74658.0,1.97,-22.11,-23.09,0,*7C
1507997222.56,19080,14.69,74652.0,1.97,-21.83,-22.83,0,*71
1507997223.81,19081,14.69,74656.5,1.97,-21.97,-22.93,0,*74
1507997225.03,19082,14.69,74658.0,1.97,-22.03,-22.97,0,*7D
1507997226.29,19083,14.69,74656.0,1.97,-21.87,-22.83,0,*76
1507997227.51,19084,14.69,74656.0,1.97,-22.03,-22.93,0,*7F
1507997228.79,19085,14.69,74656.0,1.97,-22.17,-23.23,0,*71
1507997230.04,19086,14.69,74658.5,1.97,-22.17,-23.13,0,*71
1507997231.27,19087,14.69,74660.8,1.97,-22.03,-22.97,0,*78
1507997232.47,19088,14.69,74660.8,1.95,-22.03,-22.97,0,*75
1507997233.7,19089,14.69,74656.0,1.99,-22.21,-23.09,0,*7E
1507997234.92,19090,14.69,74658.8,1.97,-22.03,-22.93,0,*7A
1507997236.17,19091,14.69,74656.0,1.97,-21.87,-22.83,0,*75
1507997237.37,19092,14.69,74654.0,1.99,-21.73,-22.63,0,*7D
1507997238.65,19093,14.69,74654.0,1.97,-21.87,-22.77,0,*7C
1507997239.84,19094,14.69,74654.0,1.99,-22.07,-22.87,0,*71
1507997241.06,19095,14.69,74652.5,1.97,-22.03,-22.93,0,*7F
1507997242.31,19096,14.69,74652.0,1.97,-21.97,-22.93,0,*72
1507997243.54,19097,14.69,74656.5,1.97,-22.03,-22.97,0,*79
1507997244.76,19098,14.69,74660.3,1.97,-22.03,-22.97,0,*76
1507997246.01,19099,14.69,74660.0,1.97,-21.87,-22.83,0,*7D
1507997247.26,19100,14.69,74658.8,1.97,-21.87,-22.83,0,*7C
1507997248.51,19101,14.69,74656.5,1.97,-21.83,-22.83,0,*79
1507997249.76,19102,14.69,74660.3,1.99,-21.83,-22.77,0,*7F
1507997250.98,19103,14.69,74658.3,1.97,-22.03,-22.97,0,*75
1507997252.23,19104,14.69,74658.0,1.97,-21.97,-22.93,0,*78
1507997253.46,19105,14.69,74662.0,1.97,-22.03,-22.93,0,*77
1507997254.71,19106,14.69,74662.8,1.97,-21.73,-22.77,0,*7A
1507997255.96,19107,14.69,74660.5,1.97,-21.87,-22.83,0,*7B
1507997257.18,19108,14.69,74660.8,1.97,-22.11,-23.09,0,*7B
1507997258.43,19109,14.69,74660.3,1.99,-21.83,-22.77,0,*74
1507997259.66,19110,14.69,74656.0,1.97,-22.03,-23.09,0,*71
1507997260.94,19111,14.69,74662.0,1.97,-22.17,-23.23,0,*7D
1507997262.16,19112,14.69,74658.8,1.97,-22.03,-22.97,0,*75
1507997263.42,19113,14.69,74662.3,1.97,-21.87,-22.93,0,*7F
1507997264.64,19114,14.69,74662.8,1.97,-22.11,-23.13,0,*7D
1507997265.86,19115,14.69,74662.5,1.97,-22.03,-22.97,0,*72
1507997267.09,19116,14.69,74656.8,1.95,-21.87,-22.87,0,*7D
1507997268.3,19117,14.69,74656.3,1.95,-21.93,-22.97,0,*78
1507997269.55,19118,14.69,74662.8,1.97,-21.97,-22.97,0,*71
1507997270.77,19119,14.69,74664.8,1.97,-22.03,-23.09,0,*78
1507997271.99,19120,14.69,74662.0,1.97,-22.03,-22.97,0,*74
1507997273.24,19121,14.69,74658.5,1.97,-21.83,-22.63,0,*75
1507997274.47,19122,14.69,74656.0,1.95,-22.17,-23.13,0,*7C
1507997275.73,19123,14.69,74660.0,1.95,-22.17,-23.03,0,*7C
1507997276.93,19124,14.69,74660.0,1.95,-21.93,-22.87,0,*79
1507997278.16,19125,14.69,74660.3,1.95,-22.03,-23.03,0,*7F
1507997279.36,19126,14.69,74660.8,1.95,-22.03,-22.97,0,*70
1507997280.56,19127,14.69,74660.0,1.95,-21.77,-22.87,0,*70
1507997281.76,19128,14.69,74660.8,1.95,-21.93,-22.87,0,*75
1507997282.99,19129,14.69,74656.3,1.95,-21.87,-22.87,0,*71
1507997284.19,19130,14.69,74664.5,1.95,-21.73,-22.67,0,*7C
1507997285.42,19131,14.69,74664.5,1.95,-21.87,-22.83,0,*7C
1507997286.65,19132,14.69,74662.5,1.93,-21.77,-22.83,0,*76
1507997287.88,19133,14.69,74658.8,1.95,-21.87,-22.83,0,*7E
1507997289.11,19134,14.69,74656.5,1.95,-21.87,-22.87,0,*7D
1507997290.33,19135,14.69,74658.5,1.93,-21.77,-22.67,0,*7B
1507997291.54,19136,14.69,74660.8,1.95,-21.93,-22.87,0,*7A
1507997292.76,19137,14.69,74662.8,1.97,-21.63,-22.63,0,*7C
1507997294.03,19138,14.69,74658.0,1.97,-21.83,-22.77,0,*78
1507997295.26,19139,14.69,74662.3,1.95,-21.57,-22.53,0,*74
1507997296.48,19140,14.69,74660.5,1.95,-21.57,-22.37,0,*78
1507997297.71,19141,14.69,74662.0,1.95,-21.53,-22.37,0,*7D
1507997298.96,19142,14.69,74658.3,1.97,-21.67,-22.57,0,*7D
1507997300.22,19143,14.69,74662.0,1.97,-21.63,-22.47,0,*79
1507997301.5,19144,14.69,74662.0,1.97,-21.53,-22.47,0,*7D